W5ZYX Weather Reports


time (UTC)temp
C
wind
direction
speed
KPH
gust
KPH
rain 1hr
cm
rain 24hr
cm
rain mn
cm
humidity
%
barometer
mb
20260509174038 26 164 1.6 8.0 0.00 0.03 0.03 86 1011.3
20260509173538 26 254 1.6 11.3 0.00 0.03 0.03 86 1011.3
20260509173049 26 0 0.0 11.3 0.00 0.03 0.03 86 1011.3
20260509172536 26 250 1.6 9.7 0.00 0.03 0.03 86 1011.4
20260509172039 26 167 0.0 9.7 0.00 0.03 0.03 89 1011.5
20260509171546 26 0 1.6 9.7 0.00 0.03 0.03 89 1011.5
20260509171036 26 0 0.0 6.4 0.00 0.03 0.03 89 1011.6
20260509170535 25 202 1.6 6.4 0.00 0.03 0.03 90 1011.6
20260509170051 25 170 0.0 6.4 0.00 0.03 0.03 89 1011.6
20260509165536 25 0 0.0 6.4 0.00 0.03 0.03 90 1011.7
20260509165036 25 247 1.6 6.4 0.00 0.03 0.03 90 1011.7
20260509164546 25 179 0.0 6.4 0.00 0.03 0.03 91 1011.8
20260509164039 25 179 0.0 6.4 0.00 0.03 0.03 91 1011.8
20260509163540 25 269 1.6 6.4 0.00 0.03 0.03 92 1011.8
20260509163054 25 203 1.6 6.4 0.00 0.03 0.03 92 1011.7
20260509162537 25 271 1.6 6.4 0.00 0.03 0.03 93 1011.7
20260509162039 24 288 3.2 9.7 0.00 0.03 0.03 93 1011.7
20260509161549 24 275 1.6 9.7 0.00 0.03 0.03 94 1011.8
20260509161036 24 298 0.0 8.0 0.00 0.03 0.03 95 1011.7
20260509160537 24 0 1.6 6.4 0.00 0.03 0.03 96 1011.7
20260509160050 23 0 0.0 4.8 0.00 0.03 0.03 96 1011.8
20260509155540 23 0 0.0 4.8 0.00 0.03 0.03 96 1011.8
20260509155036 23 142 0.0 4.8 0.00 0.03 0.03 96 1012.0
20260509154553 23 0 0.0 6.4 0.00 0.03 0.03 96 1012.1
20260509154040 23 0 1.6 6.4 0.00 0.03 0.03 96 1012.1
20260509153539 23 282 1.6 6.4 0.00 0.03 0.03 97 1012.1
20260509153049 23 261 1.6 6.4 0.00 0.03 0.03 96 1012.0
20260509152539 23 246 0.0 3.2 0.00 0.03 0.03 97 1011.9
20260509152037 23 0 0.0 4.8 0.00 0.03 0.03 97 1011.8
20260509151547 23 0 0.0 4.8 0.00 0.03 0.03 97 1011.8
20260509151036 23 263 0.0 6.4 0.00 0.03 0.03 97 1011.6
20260509150536 23 0 0.0 8.0 0.00 0.03 0.03 97 1011.6
20260509150049 23 113 0.0 8.0 0.00 0.03 0.03 97 1011.4
20260509145539 23 168 0.0 11.3 0.00 0.03 0.03 97 1011.3
20260509145039 23 188 3.2 11.3 0.00 0.03 0.03 97 1011.1
20260509144549 23 167 4.8 16.1 0.00 0.03 0.03 97 1011.0
20260509144039 22 146 4.8 16.1 0.00 0.03 0.03 97 1010.8
20260509143540 22 173 4.8 12.9 0.00 0.03 0.03 97 1011.0
20260509143047 22 168 3.2 8.0 0.00 0.03 0.03 97 1011.0
20260509142536 22 157 1.6 4.8 0.00 0.03 0.03 97 1011.1
20260509142039 22 0 0.0 3.2 0.00 0.03 0.03 97 1011.2
20260509141547 22 0 0.0 3.2 0.00 0.03 0.03 97 1011.3
20260509141036 22 157 0.0 3.2 0.00 0.03 0.03 97 1011.3
20260509140536 22 0 0.0 3.2 0.00 0.03 0.03 97 1011.2
20260509140056 22 0 0.0 1.6 0.00 0.03 0.03 97 1011.4
20260509135538 22 0 0.0 3.2 0.00 0.10 0.03 97 1011.3
20260509135039 22 0 0.0 3.2 0.00 0.10 0.03 97 1011.3
20260509134557 22 0 0.0 3.2 0.00 0.10 0.03 97 1011.1
20260509134035 22 0 0.0 4.8 0.00 0.10 0.03 97 1011.2
20260509133539 22 157 0.0 8.0 0.00 0.10 0.03 97 1011.1
20260509133053 22 0 1.6 8.0 0.00 0.10 0.03 97 1010.8
20260509132539 22 172 0.0 8.0 0.00 0.10 0.03 97 1010.8
20260509132040 22 166 1.6 16.1 0.00 0.10 0.03 97 1010.6
20260509131551 22 160 4.8 16.1 0.00 0.10 0.03 96 1010.6
20260509131039 22 0 1.6 14.5 0.00 0.10 0.03 96 1010.3
20260509130536 22 177 6.4 14.5 0.00 0.10 0.03 96 1010.0
20260509130052 22 173 8.0 14.5 0.00 0.10 0.03 96 1010.0
20260509125537 22 185 3.2 8.0 0.00 0.53 0.03 96 1010.2
20260509125038 22 173 1.6 11.3 0.00 0.53 0.03 96 1010.2
20260509124546 22 173 3.2 11.3 0.00 0.53 0.03 96 1010.1
20260509124036 22 132 3.2 11.3 0.00 0.53 0.03 96 1010.0
20260509123539 22 147 4.8 9.7 0.00 0.53 0.03 96 1010.0
20260509123045 22 147 1.6 6.4 0.00 0.53 0.03 96 1010.2
20260509122535 22 131 1.6 4.8 0.00 0.53 0.03 96 1010.4
20260509122039 22 215 0.0 1.6 0.00 0.53 0.03 96 1010.6
20260509121547 22 0 0.0 0.0 0.00 0.53 0.03 96 1010.9
20260509121039 21 0 0.0 1.6 0.00 0.53 0.03 96 1010.9
20260509120536 22 0 0.0 1.6 0.00 0.53 0.03 96 1011.0
20260509120054 22 0 0.0 1.6 0.00 0.53 0.03 96 1011.1
20260509115538 21 0 0.0 1.6 0.00 2.13 0.03 96 1011.0
20260509115036 21 0 0.0 4.8 0.00 2.13 0.03 96 1011.1
20260509114547 21 0 0.0 4.8 0.03 2.13 0.03 96 1011.0
20260509114036 21 350 1.6 8.0 0.03 2.13 0.03 96 1011.1
20260509113540 21 350 3.2 8.0 0.03 2.13 0.03 95 1011.1
20260509113048 21 350 3.2 8.0 0.03 2.13 0.03 96 1011.2
20260509112536 21 350 3.2 6.4 0.03 2.13 0.03 96 1011.1
20260509112036 21 288 3.2 6.4 0.03 2.13 0.03 96 1010.9
20260509111549 21 288 3.2 4.8 0.03 2.13 0.03 96 1010.9
20260509111035 21 288 0.0 3.2 0.03 2.13 0.03 96 1010.9
20260509110539 21 0 0.0 4.8 0.03 2.13 0.03 96 1010.7
20260509110049 21 0 0.0 4.8 0.03 2.13 0.03 96 1010.5
20260509105536 21 0 0.0 4.8 0.03 2.13 0.03 95 1010.3
20260509105039 21 221 1.6 4.8 0.00 2.11 0.00 95 1010.3
20260509104550 21 0 0.0 1.6 0.00 2.11 0.00 95 1010.5
20260509104037 21 0 0.0 0.0 0.00 2.11 0.00 95 1010.6
20260509103535 21 0 0.0 0.0 0.00 2.11 0.00 95 1010.6
20260509103047 21 0 0.0 0.0 0.00 2.11 0.00 95 1010.6
20260509102536 21 0 0.0 6.4 0.00 2.11 0.00 95 1010.6
20260509102037 21 0 0.0 6.4 0.00 2.11 0.00 95 1010.7
20260509101556 21 283 1.6 6.4 0.00 2.11 0.00 95 1010.7
20260509101037 22 0 0.0 3.2 0.00 2.11 0.00 95 1010.6
20260509100536 21 0 0.0 3.2 0.00 2.11 0.00 95 1010.6
20260509100047 21 148 0.0 8.0 0.00 2.11 0.00 95 1010.7
20260509095536 21 0 0.0 8.0 0.00 2.11 0.00 95 1010.6
20260509095036 21 148 3.2 8.0 0.00 2.11 0.00 95 1010.4
20260509094552 22 132 3.2 8.0 0.00 2.11 0.00 95 1010.6
20260509094038 22 13 3.2 8.0 0.00 2.11 0.00 94 1010.8
20260509093539 22 13 4.8 8.0 0.00 2.11 0.00 94 1010.9
20260509093056 22 360 3.2 8.0 0.00 2.11 0.00 94 1010.9
20260509092538 22 360 3.2 8.0 0.00 2.11 0.00 94 1010.9
20260509092038 22 150 3.2 8.0 0.00 2.11 0.00 94 1011.0
20260509091551 22 150 3.2 8.0 0.00 2.11 0.00 95 1011.0
20260509091036 22 150 0.0 3.2 0.00 2.11 0.00 94 1010.9
20260509090540 22 0 0.0 0.0 0.00 2.11 0.00 94 1011.0
20260509090047 22 0 0.0 0.0 0.00 2.11 0.00 94 1011.0
20260509085536 22 0 0.0 0.0 0.00 2.11 0.00 94 1010.9
20260509085036 22 0 0.0 0.0 0.00 2.11 0.00 94 1010.9
20260509084555 22 0 0.0 1.6 0.00 2.11 0.00 94 1010.7
20260509084038 22 0 0.0 1.6 0.00 2.11 0.00 94 1010.7
20260509083539 22 0 0.0 3.2 0.00 2.11 0.00 94 1010.9
20260509083047 22 0 0.0 3.2 0.00 2.11 0.00 94 1010.9
20260509082536 22 0 0.0 3.2 0.00 2.11 0.00 94 1010.9
20260509082037 22 0 0.0 3.2 0.00 2.11 0.00 94 1010.8
20260509081550 22 0 0.0 0.0 0.00 2.11 0.00 94 1010.9
20260509081039 22 0 0.0 0.0 0.00 2.11 0.00 94 1011.0
20260509080536 22 0 0.0 0.0 0.00 2.11 0.00 94 1011.2
20260509080055 22 0 0.0 0.0 0.00 2.11 0.00 94 1011.3
20260509075536 22 0 0.0 0.0 0.00 2.11 0.00 94 1011.5
20260509075039 22 0 0.0 3.2 0.00 2.11 0.00 94 1011.6
20260509074547 22 0 0.0 3.2 0.00 2.11 0.00 94 1011.6
20260509074036 22 0 0.0 3.2 0.00 2.11 0.00 94 1011.5
20260509073536 22 0 0.0 3.2 0.00 2.11 0.00 94 1011.6
20260509073048 22 0 0.0 3.2 0.00 2.11 0.00 94 1011.5
20260509072537 22 0 0.0 3.2 0.00 2.11 0.00 94 1011.3
20260509072035 22 0 0.0 3.2 0.00 2.11 0.00 94 1011.3
20260509071548 22 150 0.0 1.6 0.00 2.11 0.00 94 1011.3
20260509071036 22 0 0.0 1.6 0.00 2.11 0.00 94 1011.2
20260509070537 22 0 0.0 4.8 0.00 2.11 0.00 94 1011.1
20260509070054 22 0 0.0 4.8 0.00 2.11 0.00 94 1011.0
20260509065535 22 150 1.6 8.0 0.00 2.11 0.00 94 1010.9
20260509065037 22 150 1.6 9.7 0.00 2.11 0.00 94 1010.8
20260509064546 22 150 1.6 9.7 0.00 2.11 0.00 94 1010.7
20260509064037 22 173 3.2 8.0 0.00 2.11 0.00 93 1010.6
20260509063536 22 189 1.6 6.4 0.00 2.11 0.00 93 1010.6
20260509063049 22 0 1.6 6.4 0.00 2.11 0.00 93 1010.8
20260509062536 22 0 1.6 4.8 0.00 2.11 0.00 93 1010.9
20260509062037 22 146 0.0 3.2 0.00 2.11 0.00 93 1010.9
20260509061543 22 0 0.0 6.4 0.00 2.11 0.00 93 1011.0
20260509061037 22 146 0.0 8.0 0.00 2.11 0.00 93 1010.9
20260509060536 21 146 1.6 9.7 0.00 2.11 0.00 93 1010.9
20260509060049 21 171 1.6 9.7 0.00 2.11 0.00 93 1010.9
20260509055536 21 168 1.6 8.0 0.00 2.11 0.00 93 1010.9
20260509055035 21 168 1.6 9.7 0.00 2.11 0.00 93 1010.8
20260509054554 21 168 3.2 9.7 0.00 2.11 0.00 93 1010.9
20260509054036 21 168 3.2 9.7 0.00 2.11 0.00 93 1010.9
20260509053537 21 146 3.2 8.0 0.00 2.11 0.00 93 1011.0
20260509053047 21 0 1.6 6.4 0.00 2.11 0.00 93 1011.2
20260509052537 21 0 0.0 8.0 0.00 2.11 0.00 93 1011.1
20260509052038 21 0 1.6 8.0 0.00 2.11 0.00 93 1011.1
20260509051557 21 161 1.6 8.0 0.00 2.11 0.00 92 1011.1
20260509051036 21 161 1.6 8.0 0.00 2.11 0.00 92 1011.1
20260509050536 21 0 1.6 9.7 0.00 2.11 0.00 92 1011.0
20260509050048 21 0 4.8 9.7 0.00 2.11 0.00 92 1010.9
20260509045536 21 137 4.8 9.7 0.00 2.11 2.11 92 1010.8
20260509045036 21 136 3.2 11.3 0.00 2.11 2.11 92 1010.8
20260509044547 21 123 1.6 11.3 0.00 2.11 2.11 92 1010.8
20260509044041 21 138 6.4 12.9 0.00 2.11 2.11 92 1010.7
20260509043539 21 138 6.4 14.5 0.00 2.11 2.11 92 1010.7
20260509043050 21 151 6.4 17.7 0.00 2.11 2.11 92 1010.8
20260509042537 21 139 8.0 17.7 0.00 2.11 2.11 92 1010.7
20260509042036 21 175 8.0 17.7 0.00 2.11 2.11 92 1010.7
20260509041551 21 144 9.7 17.7 0.00 2.11 2.11 93 1010.6
20260509041036 21 133 6.4 12.9 0.00 2.11 2.11 93 1010.7
20260509040536 21 133 4.8 12.9 0.00 2.11 2.11 93 1010.8
20260509040049 21 151 4.8 9.7 0.00 2.11 2.11 92 1010.8
20260509035539 21 159 3.2 8.0 0.00 2.11 2.11 92 1010.7
20260509035039 21 159 3.2 8.0 0.00 2.11 2.11 92 1010.7
20260509034550 21 159 1.6 6.4 0.00 2.11 2.11 92 1010.7
20260509034035 21 0 0.0 1.6 0.00 2.11 2.11 92 1010.7
20260509033537 21 0 0.0 0.0 0.00 2.11 2.11 92 1010.7
20260509033100 21 0 0.0 1.6 0.00 2.11 2.11 92 1010.7
20260509032536 21 0 0.0 1.6 0.00 2.11 2.11 92 1010.7
20260509032037 21 0 0.0 0.0 0.00 2.11 2.11 92 1010.6
20260509031552 21 0 0.0 0.0 0.00 2.11 2.11 92 1010.6
20260509031039 21 0 0.0 0.0 0.00 2.11 2.11 91 1010.4
20260509030540 21 0 0.0 0.0 0.00 2.11 2.11 91 1010.3
20260509030052 21 0 0.0 0.0 0.00 2.11 2.11 91 1010.3
20260509025539 22 0 0.0 6.4 0.00 2.11 2.11 91 1010.2
20260509025036 22 0 0.0 8.0 0.00 2.11 2.11 92 1010.1
20260509024546 22 159 1.6 8.0 0.00 2.11 2.11 92 1010.0
20260509024036 22 213 1.6 9.7 0.00 2.11 2.11 91 1010.0
20260509023536 22 164 1.6 9.7 0.00 2.11 2.11 91 1009.9
20260509023051 22 159 3.2 8.0 0.00 2.11 2.11 91 1009.8
20260509022539 22 129 1.6 3.2 0.00 2.11 2.11 91 1009.8
20260509022036 22 129 0.0 3.2 0.00 2.11 2.11 91 1009.8
20260509021550 22 0 0.0 3.2 0.00 2.11 2.11 91 1009.9
20260509021036 22 0 0.0 4.8 0.00 2.11 2.11 91 1009.8
20260509020539 22 0 1.6 11.3 0.00 2.11 2.11 91 1009.8
20260509020047 22 0 1.6 11.3 0.00 2.11 2.11 90 1009.6
20260509015539 22 129 3.2 11.3 0.00 2.11 2.11 90 1009.6
20260509015039 22 150 3.2 9.7 0.00 2.11 2.11 90 1009.5
20260509014549 22 124 3.2 9.7 0.00 2.11 2.11 90 1009.6
20260509014036 22 143 3.2 8.0 0.00 2.11 2.11 90 1009.7
20260509013536 22 165 1.6 11.3 0.00 2.11 2.11 89 1009.6
20260509013053 22 157 3.2 11.3 0.00 2.11 2.11 89 1009.6
20260509012536 22 147 3.2 11.3 0.00 2.11 2.11 89 1009.4
20260509012036 22 117 4.8 12.9 0.00 2.11 2.11 89 1009.3
20260509011556 22 111 3.2 12.9 0.00 2.11 2.11 89 1009.3
20260509011039 23 127 4.8 12.9 0.00 2.11 2.11 89 1009.3
20260509010538 23 118 4.8 9.7 0.00 2.11 2.11 89 1009.3
20260509010051 23 132 3.2 9.7 0.00 2.11 2.11 89 1009.4
20260509005536 23 130 3.2 11.3 0.00 2.11 2.11 88 1009.4
20260509005040 23 164 3.2 11.3 0.00 2.11 2.11 88 1009.4
20260509004559 23 131 4.8 11.3 0.00 2.11 2.11 88 1009.4
20260509004037 23 123 3.2 9.7 0.00 2.11 2.11 87 1009.6
20260509003537 23 111 1.6 9.7 0.00 2.11 2.11 87 1009.6
20260509003049 23 111 3.2 9.7 0.00 2.11 2.11 87 1009.5
20260509002538 23 126 1.6 9.7 0.00 2.11 2.11 86 1009.6
20260509002037 23 144 3.2 6.4 0.00 2.11 2.11 86 1009.6
20260509001547 23 0 1.6 6.4 0.00 2.11 2.11 86 1009.6
20260509001040 23 68 1.6 9.7 0.00 2.11 2.11 86 1009.5
20260509000541 24 109 3.2 9.7 0.00 2.11 2.11 85 1009.6
20260509000049 24 71 1.6 9.7 0.00 2.11 2.11 86 1009.7
20260508235536 24 111 3.2 9.7 0.00 2.11 2.11 85 1009.6
20260508235037 24 0 1.6 9.7 0.00 2.11 2.11 86 1009.7
20260508234550 23 107 3.2 9.7 0.00 2.11 2.11 86 1009.8
20260508234037 23 107 3.2 6.4 0.00 2.11 2.11 85 1009.9
20260508233536 23 107 0.0 9.7 0.00 2.11 2.11 85 1009.9
20260508233110 23 107 3.2 9.7 0.00 2.11 2.11 85 1009.9
20260508232536 23 107 3.2 9.7 0.00 2.11 2.11 85 1010.0
20260508232038 23 107 1.6 11.3 0.00 2.11 2.11 85 1010.2
20260508231553 24 107 4.8 11.3 0.00 2.11 2.11 84 1010.2
20260508231039 24 107 3.2 9.7 0.00 2.11 2.11 84 1010.2
20260508230538 24 55 1.6 6.4 0.00 2.11 2.11 85 1010.2
20260508230055 24 0 0.0 6.4 0.00 2.11 2.11 85 1010.1
20260508225539 24 168 0.0 9.7 0.00 2.11 2.11 85 1010.2
20260508225040 24 168 3.2 9.7 0.00 2.11 2.11 84 1010.2
20260508224610 24 0 0.0 6.4 0.00 2.11 2.11 84 1010.0
20260508224040 24 0 1.6 6.4 0.00 2.11 2.11 84 1010.1
20260508223539 24 0 1.6 6.4 0.00 2.11 2.11 85 1010.1
20260508223052 24 139 0.0 8.0 0.00 2.11 2.11 84 1010.1
20260508222537 24 132 1.6 8.0 0.00 2.11 2.11 84 1010.2
20260508222036 24 136 3.2 8.0 0.00 2.11 2.11 83 1010.4
20260508221553 24 129 3.2 9.7 0.00 2.11 2.11 83 1010.4
20260508221037 25 104 3.2 9.7 0.00 2.11 2.11 82 1010.2
20260508220535 25 94 0.0 9.7 0.00 2.11 2.11 83 1010.2
20260508220048 25 94 3.2 11.3 0.00 2.11 2.11 82 1010.2
20260508215539 25 0 1.6 11.3 0.00 2.11 2.11 83 1010.2
20260508215038 25 5 1.6 11.3 0.00 2.11 2.11 82 1010.1
20260508214550 25 0 3.2 11.3 0.00 2.11 2.11 81 1010.2
20260508214040 25 132 1.6 9.7 0.00 2.11 2.11 83 1010.1
20260508213538 25 0 3.2 6.4 0.00 2.11 2.11 83 1010.2
20260508213048 25 147 1.6 9.7 0.00 2.11 2.11 83 1010.2
20260508212538 25 147 3.2 9.7 0.00 2.11 2.11 82 1010.3
20260508212038 24 205 3.2 11.3 0.00 2.11 2.11 83 1010.4
20260508211549 24 0 4.8 11.3 0.00 2.11 2.11 83 1010.4
20260508211037 24 0 0.0 16.1 0.00 2.11 2.11 84 1010.4
20260508210537 23 107 1.6 16.1 0.00 2.11 2.11 84 1010.5
20260508210050 23 133 1.6 12.9 0.00 2.11 2.11 85 1010.6
20260508205536 23 127 1.6 12.9 0.00 2.11 2.11 84 1010.5
20260508205037 23 132 3.2 12.9 0.00 2.11 2.11 84 1010.6
20260508204552 23 140 4.8 9.7 0.00 2.11 2.11 85 1010.7
20260508204039 23 97 3.2 14.5 0.00 2.11 2.11 84 1010.7
20260508203536 23 57 4.8 14.5 0.00 2.11 2.11 85 1010.8
20260508203053 23 70 4.8 11.3 0.00 2.11 2.11 84 1010.9
20260508202538 23 111 4.8 11.3 0.00 2.11 2.11 84 1010.9
20260508202037 23 117 0.0 9.7 0.00 2.11 2.11 85 1011.1
20260508201547 23 150 3.2 8.0 0.00 2.11 2.11 85 1011.1
20260508201036 23 61 0.0 8.0 0.00 2.11 2.11 86 1011.3
20260508200540 23 0 1.6 8.0 0.00 2.11 2.11 86 1011.3
20260508200104 22 109 4.8 8.0 0.00 2.11 2.11 86 1011.4
20260508195539 22 5 3.2 6.4 0.00 2.11 2.11 86 1011.5
20260508195041 22 34 3.2 8.0 0.00 2.11 2.11 86 1011.8
20260508194553 22 74 3.2 8.0 0.00 2.11 2.11 86 1011.8
20260508194038 22 65 3.2 8.0 0.00 2.11 2.11 86 1011.7
20260508193540 22 0 0.0 6.4 0.00 2.11 2.11 87 1011.9
20260508193054 22 44 1.6 8.0 0.00 2.11 2.11 87 1012.0
20260508192540 22 0 4.8 9.7 0.00 2.11 2.11 87 1012.0
20260508192037 22 355 0.0 9.7 0.00 2.11 2.11 87 1012.1
20260508191552 22 103 1.6 8.0 0.00 2.11 2.11 88 1012.2
20260508191039 21 0 0.0 8.0 0.00 2.11 2.11 88 1012.2
20260508190540 21 13 4.8 8.0 0.00 2.11 2.11 88 1012.2
20260508190052 21 355 3.2 8.0 0.00 2.11 2.11 89 1012.3
20260508185540 21 103 1.6 8.0 0.00 2.11 2.11 90 1012.3
20260508185040 21 92 1.6 9.7 0.00 2.11 2.11 90 1012.2
20260508184552 21 32 4.8 9.7 0.00 2.11 2.11 90 1012.4
20260508184039 21 94 3.2 11.3 0.00 2.11 2.11 90 1012.4
20260508183539 21 101 4.8 12.9 0.00 2.11 2.11 90 1012.5
20260508183049 20 33 6.4 12.9 0.00 2.11 2.11 91 1012.5
20260508182538 20 55 4.8 14.5 0.00 2.11 2.11 91 1012.5
20260508182039 20 38 8.0 14.5 0.00 2.11 2.11 91 1012.7
20260508181552 20 48 6.4 12.9 0.00 2.11 2.11 91 1012.8
20260508181039 20 81 3.2 12.9 0.00 2.11 2.11 91 1013.0
20260508180537 20 35 3.2 11.3 0.00 2.11 2.11 92 1013.0
20260508180053 20 58 4.8 12.9 0.00 2.11 2.11 92 1013.1
20260508175537 20 83 6.4 16.1 0.00 2.11 2.11 93 1013.0
20260508175036 20 0 6.4 16.1 0.00 2.11 2.11 93 1013.0
20260508174600 19 23 9.7 16.1 0.00 2.11 2.11 92 1013.1